DAL621 KSAV-KATL

Flight info

Callsign DAL621
Flight time 0h 41m
Altitude 28000
Route SMALZ TYFTR JJEDI4
Aircraft A320/M-SDE3FGHIRWY/LB1

Departure

Time 2026-05-07 22:24
Airport Savannah Hilton Head International Airport (KSAV)

Arrival

Time 2026-05-07 23:06
Airport Hartsfield Jackson Atlanta International Airport (KATL)
Time Latitude Longitude Altitude Speed Heading
2026-05-07 22:03 32.13520 -81.20785 38 ft 0 kts
2026-05-07 22:12 32.13504 -81.20785 37 ft 4 kts
2026-05-07 22:12 32.13478 -81.20785 36 ft 4 kts 352°
2026-05-07 22:13 32.13452 -81.20778 37 ft 4 kts 337°
2026-05-07 22:13 32.13437 -81.20769 39 ft 1 kts 332°
2026-05-07 22:13 32.13435 -81.20768 39 ft 0 kts 332°
2026-05-07 22:17 32.13436 -81.20769 39 ft 2 kts 333°
2026-05-07 22:17 32.13450 -81.20734 38 ft 11 kts 90°
2026-05-07 22:17 32.13447 -81.20608 41 ft 18 kts 92°
2026-05-07 22:18 32.13449 -81.20455 47 ft 17 kts 73°
2026-05-07 22:18 32.13571 -81.20301 55 ft 13 kts 90°
2026-05-07 22:18 32.13571 -81.20205 66 ft 11 kts 89°
2026-05-07 22:19 32.13571 -81.20117 68 ft 11 kts 90°
2026-05-07 22:19 32.13562 -81.20022 65 ft 13 kts 105°
2026-05-07 22:19 32.13556 -81.19900 63 ft 18 kts 90°
2026-05-07 22:19 32.13527 -81.19824 63 ft 6 kts 179°
2026-05-07 22:20 32.13480 -81.19823 60 ft 7 kts 179°
2026-05-07 22:20 32.13434 -81.19822 59 ft 6 kts 178°
2026-05-07 22:20 32.13394 -81.19820 58 ft 5 kts 178°
2026-05-07 22:20 32.13344 -81.19820 58 ft 11 kts 179°
2026-05-07 22:21 32.13235 -81.19821 53 ft 18 kts 178°
2026-05-07 22:21 32.13080 -81.19818 54 ft 21 kts 179°
2026-05-07 22:21 32.12999 -81.19718 52 ft 19 kts 107°
2026-05-07 22:21 32.12967 -81.19573 58 ft 18 kts 99°
2026-05-07 22:22 32.12964 -81.19425 54 ft 18 kts 90°
2026-05-07 22:22 32.12963 -81.19276 56 ft 18 kts 91°
2026-05-07 22:22 32.12961 -81.19127 58 ft 18 kts 90°
2026-05-07 22:22 32.12960 -81.18974 65 ft 18 kts 90°
2026-05-07 22:23 32.12957 -81.18911 65 ft 1 kts 103°
2026-05-07 22:23 32.12954 -81.18903 66 ft 7 kts 110°
2026-05-07 22:23 32.12848 -81.18942 65 ft 21 kts 270°
2026-05-07 22:23 32.12857 -81.19107 65 ft 46 kts 275°
2026-05-07 22:24 32.12856 -81.19801 58 ft 125 kts 270°
2026-05-07 22:24 32.12866 -81.21056 307 ft 163 kts 271°
2026-05-07 22:24 32.12884 -81.22418 1113 ft 169 kts 270°
2026-05-07 22:24 32.12914 -81.23812 1989 ft 169 kts 278°
2026-05-07 22:25 32.13296 -81.25114 2525 ft 181 kts 301°
2026-05-07 22:25 32.14210 -81.26354 2927 ft 216 kts 319°
2026-05-07 22:25 32.15437 -81.27425 3884 ft 227 kts 327°
2026-05-07 22:25 32.16870 -81.28428 4591 ft 252 kts 328°
2026-05-07 22:26 32.18398 -81.29553 5219 ft 264 kts 327°
2026-05-07 22:26 32.19957 -81.30746 6000 ft 269 kts 326°
2026-05-07 22:26 32.21509 -81.31961 6806 ft 273 kts 326°
2026-05-07 22:26 32.23095 -81.33220 7609 ft 276 kts 325°
2026-05-07 22:27 32.24696 -81.34500 8405 ft 279 kts 325°
2026-05-07 22:27 32.26314 -81.35793 9178 ft 283 kts 325°
2026-05-07 22:27 32.27960 -81.37105 9930 ft 286 kts 325°
2026-05-07 22:27 32.29625 -81.38432 10680 ft 289 kts 325°
2026-05-07 22:28 32.31303 -81.39771 11404 ft 293 kts 325°
2026-05-07 22:28 32.33003 -81.41127 12115 ft 296 kts 325°
2026-05-07 22:28 32.34719 -81.42496 12807 ft 299 kts 325°
2026-05-07 22:28 32.36451 -81.43879 13480 ft 302 kts 325°
2026-05-07 22:29 32.38201 -81.45281 14137 ft 305 kts 325°
2026-05-07 22:29 32.39968 -81.46697 14777 ft 308 kts 325°
2026-05-07 22:29 32.41753 -81.48136 15404 ft 311 kts 323°
2026-05-07 22:29 32.43388 -81.49830 16005 ft 314 kts 312°
2026-05-07 22:30 32.44738 -81.51874 16589 ft 317 kts 302°
2026-05-07 22:30 32.45757 -81.54197 17181 ft 319 kts 291°
2026-05-07 22:30 32.46407 -81.56716 17749 ft 322 kts 281°
2026-05-07 22:30 32.46654 -81.59360 18309 ft 325 kts 270°
2026-05-07 22:31 32.46486 -81.62003 18848 ft 328 kts 261°
2026-05-07 22:31 32.46153 -81.64685 19389 ft 331 kts 262°
2026-05-07 22:31 32.45826 -81.67394 19923 ft 333 kts 262°
2026-05-07 22:31 32.45501 -81.70122 20448 ft 336 kts 262°
2026-05-07 22:32 32.45172 -81.72880 20961 ft 339 kts 262°
2026-05-07 22:32 32.44840 -81.75653 21460 ft 342 kts 262°
2026-05-07 22:32 32.44503 -81.78446 21946 ft 344 kts 262°
2026-05-07 22:32 32.44160 -81.81264 22426 ft 347 kts 262°
2026-05-07 22:33 32.43812 -81.84106 22888 ft 350 kts 262°
2026-05-07 22:33 32.43460 -81.86970 23352 ft 352 kts 262°
2026-05-07 22:33 32.43106 -81.89846 23800 ft 355 kts 262°
2026-05-07 22:33 32.42746 -81.92747 24242 ft 357 kts 262°
2026-05-07 22:34 32.42384 -81.95665 24675 ft 360 kts 262°
2026-05-07 22:34 32.42022 -81.98607 25098 ft 362 kts 262°
2026-05-07 22:34 32.41658 -82.01567 25516 ft 365 kts 262°
2026-05-07 22:34 32.41291 -82.04546 25928 ft 367 kts 262°
2026-05-07 22:35 32.40923 -82.07547 26338 ft 369 kts 262°
2026-05-07 22:35 32.40556 -82.10580 26732 ft 372 kts 264°
2026-05-07 22:35 32.40635 -82.13628 26983 ft 374 kts 281°
2026-05-07 22:35 32.41144 -82.16649 27008 ft 374 kts 282°
2026-05-07 22:36 32.41683 -82.19656 27010 ft 373 kts 282°
2026-05-07 22:36 32.42225 -82.22624 27009 ft 373 kts 282°
2026-05-07 22:36 32.42779 -82.25668 27010 ft 373 kts 282°
2026-05-07 22:36 32.43321 -82.28673 27009 ft 373 kts 280°
2026-05-07 22:37 32.43872 -82.31769 26724 ft 390 kts 282°
2026-05-07 22:37 32.44417 -82.34858 26892 ft 378 kts 282°
2026-05-07 22:37 32.44939 -82.37848 27003 ft 375 kts 282°
2026-05-07 22:37 32.45467 -82.40867 27010 ft 374 kts 282°
2026-05-07 22:38 32.45994 -82.43884 27009 ft 373 kts 281°
2026-05-07 22:38 32.46519 -82.46899 27010 ft 373 kts 281°
2026-05-07 22:38 32.47042 -82.49908 27010 ft 373 kts 281°
2026-05-07 22:38 32.47566 -82.52932 27010 ft 373 kts 281°
2026-05-07 22:39 32.48088 -82.55942 27009 ft 373 kts 281°
2026-05-07 22:39 32.48607 -82.58939 26664 ft 370 kts 281°
2026-05-07 22:39 32.49123 -82.61915 26230 ft 368 kts 281°
2026-05-07 22:39 32.49636 -82.64877 25800 ft 365 kts 281°
2026-05-07 22:40 32.50144 -82.67812 25360 ft 363 kts 281°
2026-05-07 22:40 32.50648 -82.70732 24933 ft 360 kts 281°
2026-05-07 22:40 32.51146 -82.73631 24507 ft 358 kts 281°
2026-05-07 22:40 32.51640 -82.76508 24063 ft 355 kts 281°
2026-05-07 22:41 32.52125 -82.79327 23638 ft 353 kts 281°
2026-05-07 22:41 32.52612 -82.82166 23212 ft 350 kts 281°
2026-05-07 22:41 32.53096 -82.84981 22795 ft 348 kts 281°
2026-05-07 22:41 32.53577 -82.87783 22382 ft 346 kts 281°
2026-05-07 22:42 32.54054 -82.90570 21990 ft 344 kts 281°
2026-05-07 22:42 32.54532 -82.93371 21575 ft 341 kts 281°
2026-05-07 22:42 32.54995 -82.96083 21183 ft 339 kts 281°
2026-05-07 22:42 32.55459 -82.98820 20790 ft 337 kts 281°
2026-05-07 22:43 32.55917 -83.01537 20400 ft 335 kts 281°
2026-05-07 22:43 32.56372 -83.04236 20006 ft 333 kts 281°
2026-05-07 22:43 32.56828 -83.06921 19631 ft 331 kts 281°
2026-05-07 22:43 32.57283 -83.09588 19253 ft 329 kts 281°
2026-05-07 22:44 32.57732 -83.12238 18874 ft 327 kts 281°
2026-05-07 22:44 32.58175 -83.14882 18496 ft 325 kts 281°
2026-05-07 22:44 32.58621 -83.17507 18125 ft 324 kts 283°
2026-05-07 22:44 32.59537 -83.19908 17766 ft 320 kts 309°
2026-05-07 22:45 32.61130 -83.21739 17373 ft 319 kts 318°
2026-05-07 22:45 32.62801 -83.23476 16990 ft 319 kts 319°
2026-05-07 22:45 32.64472 -83.25195 16630 ft 317 kts 319°
2026-05-07 22:45 32.66136 -83.26907 16279 ft 315 kts 319°
2026-05-07 22:46 32.67789 -83.28610 15934 ft 314 kts 319°
2026-05-07 22:46 32.69429 -83.30308 15594 ft 312 kts 318°
2026-05-07 22:46 32.71061 -83.32003 15256 ft 311 kts 318°
2026-05-07 22:46 32.72681 -83.33688 14918 ft 309 kts 318°
2026-05-07 22:47 32.74294 -83.35367 14583 ft 307 kts 318°
2026-05-07 22:47 32.75898 -83.37035 14247 ft 306 kts 318°
2026-05-07 22:47 32.77492 -83.38697 14019 ft 304 kts 318°
2026-05-07 22:47 32.79084 -83.40357 14014 ft 305 kts 318°
2026-05-07 22:48 32.80678 -83.42022 14018 ft 305 kts 318°
2026-05-07 22:48 32.82273 -83.43687 14019 ft 305 kts 318°
2026-05-07 22:48 32.83871 -83.45352 14019 ft 305 kts 318°
2026-05-07 22:48 32.85468 -83.47017 14019 ft 306 kts 318°
2026-05-07 22:49 32.87065 -83.48687 14021 ft 306 kts 318°
2026-05-07 22:49 32.88663 -83.50359 14019 ft 306 kts 318°
2026-05-07 22:49 32.90258 -83.52029 13932 ft 304 kts 318°
2026-05-07 22:49 32.91824 -83.53668 13588 ft 303 kts 318°
2026-05-07 22:50 32.93404 -83.55320 13247 ft 301 kts 318°
2026-05-07 22:50 32.94973 -83.56961 12907 ft 300 kts 318°
2026-05-07 22:50 32.96536 -83.58595 12568 ft 298 kts 318°
2026-05-07 22:50 32.98088 -83.60222 12226 ft 297 kts 318°
2026-05-07 22:51 32.99630 -83.61843 11882 ft 295 kts 318°
2026-05-07 22:51 33.01166 -83.63457 11538 ft 293 kts 318°
2026-05-07 22:51 33.02696 -83.65064 11190 ft 292 kts 318°
2026-05-07 22:51 33.04215 -83.66659 10836 ft 290 kts 318°
2026-05-07 22:52 33.05729 -83.68247 10489 ft 289 kts 318°
2026-05-07 22:52 33.07234 -83.69826 10137 ft 287 kts 318°
2026-05-07 22:52 33.08728 -83.71397 9987 ft 287 kts 318°
2026-05-07 22:52 33.10221 -83.72968 10003 ft 287 kts 318°
2026-05-07 22:53 33.11723 -83.74548 10015 ft 288 kts 318°
2026-05-07 22:53 33.13223 -83.76124 10017 ft 288 kts 318°
2026-05-07 22:53 33.14727 -83.77705 10018 ft 288 kts 318°
2026-05-07 22:53 33.16226 -83.79285 10018 ft 288 kts 318°
2026-05-07 22:54 33.17730 -83.80874 10018 ft 288 kts 318°
2026-05-07 22:54 33.19225 -83.82460 10018 ft 288 kts 317°
2026-05-07 22:54 33.20677 -83.84101 10018 ft 288 kts 315°
2026-05-07 22:54 33.22093 -83.85783 9872 ft 285 kts 314°
2026-05-07 22:55 33.23484 -83.87471 9489 ft 284 kts 314°
2026-05-07 22:55 33.24867 -83.89153 9120 ft 283 kts 314°
2026-05-07 22:55 33.26247 -83.90823 8751 ft 281 kts 314°
2026-05-07 22:55 33.27621 -83.92476 8370 ft 280 kts 314°
2026-05-07 22:56 33.28975 -83.94098 8044 ft 277 kts 314°
2026-05-07 22:56 33.30340 -83.95731 8017 ft 278 kts 314°
2026-05-07 22:56 33.31710 -83.97371 8013 ft 279 kts 314°
2026-05-07 22:56 33.33075 -83.99003 7677 ft 277 kts 314°
2026-05-07 22:57 33.34434 -84.00625 7282 ft 275 kts 314°
2026-05-07 22:57 33.35866 -84.02131 6887 ft 274 kts 329°
2026-05-07 22:57 33.37643 -84.02877 6497 ft 272 kts 354°
2026-05-07 22:57 33.39539 -84.02961 6076 ft 272 kts 359°
2026-05-07 22:58 33.41429 -84.03000 5669 ft 271 kts 358°
2026-05-07 22:58 33.43312 -84.03034 5275 ft 269 kts 358°
2026-05-07 22:58 33.45177 -84.03068 5024 ft 267 kts 358°
2026-05-07 22:58 33.47030 -84.03313 5015 ft 268 kts 338°
2026-05-07 22:59 33.48592 -84.04445 5020 ft 267 kts 321°
2026-05-07 22:59 33.50002 -84.05935 5017 ft 266 kts 315°
2026-05-07 22:59 33.51253 -84.07432 5012 ft 248 kts 314°
2026-05-07 22:59 33.52413 -84.08861 5013 ft 230 kts 314°
2026-05-07 23:00 33.53496 -84.10185 5022 ft 216 kts 314°
2026-05-07 23:00 33.54551 -84.11448 5046 ft 214 kts 315°
2026-05-07 23:00 33.55608 -84.12696 4968 ft 211 kts 315°
2026-05-07 23:00 33.56656 -84.13922 4567 ft 210 kts 315°
2026-05-07 23:01 33.57708 -84.15142 4154 ft 210 kts 315°
2026-05-07 23:01 33.58757 -84.16352 3767 ft 209 kts 315°
2026-05-07 23:01 33.59805 -84.17556 3361 ft 208 kts 316°
2026-05-07 23:01 33.60847 -84.18750 3034 ft 205 kts 316°
2026-05-07 23:02 33.61882 -84.19935 3018 ft 207 kts 315°
2026-05-07 23:02 33.62737 -84.21315 3017 ft 207 kts 296°
2026-05-07 23:02 33.63145 -84.22960 3022 ft 207 kts 276°
2026-05-07 23:02 33.63171 -84.24684 3018 ft 207 kts 270°
2026-05-07 23:03 33.63172 -84.26401 3013 ft 199 kts 270°
2026-05-07 23:03 33.63177 -84.27983 2988 ft 182 kts 270°
2026-05-07 23:03 33.63189 -84.29459 2868 ft 173 kts 270°
2026-05-07 23:03 33.63184 -84.30886 2735 ft 169 kts 270°
2026-05-07 23:04 33.63181 -84.32266 2552 ft 166 kts 270°
2026-05-07 23:04 33.63181 -84.33654 2353 ft 166 kts 270°
2026-05-07 23:04 33.63181 -84.35043 2129 ft 166 kts 270°
2026-05-07 23:04 33.63182 -84.36423 1910 ft 165 kts 270°
2026-05-07 23:05 33.63182 -84.37793 1696 ft 165 kts 270°
2026-05-07 23:05 33.63182 -84.39168 1476 ft 165 kts 270°
2026-05-07 23:05 33.63182 -84.40541 1271 ft 164 kts 270°
2026-05-07 23:05 33.63181 -84.41913 1071 ft 165 kts 270°
2026-05-07 23:06 33.63185 -84.43154 1038 ft 99 kts 270°
2026-05-07 23:06 33.63187 -84.43512 1022 ft 15 kts 275°
2026-05-07 23:06 33.63232 -84.43632 1020 ft 17 kts 298°
2026-05-07 23:06 33.63275 -84.43728 1014 ft 22 kts 299°
2026-05-07 23:07 33.63358 -84.43926 1014 ft 18 kts 287°
2026-05-07 23:07 33.63362 -84.44028 1014 ft 19 kts 270°
2026-05-07 23:07 33.63365 -84.44155 1014 ft 0 kts 288°
2026-05-07 23:08 33.63365 -84.44157 1014 ft 2 kts 289°
2026-05-07 23:08 33.63367 -84.44160 1014 ft 1 kts 293°
2026-05-07 23:08 33.63443 -84.44218 1021 ft 20 kts 357°
2026-05-07 23:08 33.63562 -84.44194 1016 ft 19 kts
2026-05-07 23:09 33.63664 -84.44161 1009 ft 14 kts 67°
2026-05-07 23:09 33.63725 -84.44054 1008 ft 16 kts 12°
2026-05-07 23:09 33.63798 -84.44013 1007 ft 10 kts 92°
2026-05-07 23:09 33.63799 -84.43984 1007 ft 0 kts 88°
2026-05-07 23:10 33.63800 -84.43974 1007 ft 4 kts 88°
2026-05-07 23:10 33.63800 -84.43965 1007 ft 0 kts 88°